SB KEPS @ AMSAT $ORB12202.N 2Line Orbital Elements 12202.AMSAT
HR AMSAT ORBITAL ELEMENTS FOR AMATEUR SATELLITES IN NASA FORMAT FROM WA5QGD FORT WORTH,TX July 20, 2012 Send SUBSCRIBE KEPS/UNSUBSCRIBE KEPS to majordomo@amsat.org only BID: ORB12202.N
DECODE 2-LINE ELSETS WITH THE FOLLOWING KEY: 1 AAAAAU 00 0 0 BBBBB.BBBBBBBB .CCCCCCCC 00000-0 00000-0 0 DDDZ 2 AAAAA EEE.EEEE FFF.FFFF GGGGGGG HHH.HHHH III.IIII JJ.JJJJJJJJKKKKKZ KEY: A-CATALOGNUM B-EPOCHTIME C-DECAY D-ELSETNUM E-INCLINATION F-RAAN G-ECCENTRICITY H-ARGPERIGEE I-MNANOM J-MNMOTION K-ORBITNUM Z-CHECKSUM
TO ALL RADIO AMATEURS BT
AO-07 1 07530U 74089B 12201.62616761 -.00000027 00000-0 10000-3 0 4342 2 07530 101.4038 197.5860 0011582 218.7615 141.2625 12.53590272724119 FO-29 1 24278U 96046B 12201.87049254 -.00000027 00000-0 12179-4 0 09009 2 24278 098.5861 298.2513 0349995 304.8441 052.0244 13.52985103786370 SO-33 1 25509U 98061B 12201.89954958 .00000175 00000-0 22995-4 0 02816 2 25509 031.4294 148.5631 0352300 129.6238 233.6017 14.28792234717333 RS-22 1 27939U 03042A 12202.69108904 .00000287 00000-0 63149-4 0 5555 2 27939 097.8101 041.7851 0013842 154.5389 205.6501 14.64071857470785 VO-52 1 28650U 05017B 12201.64364642 .00001165 00000-0 14867-3 0 01595 2 28650 097.5963 231.0093 0025177 295.8719 063.9912 14.83054690389788 HO-68 1 36122U 09072B 12202.73471645 -.00000044 00000-0 00000 0 0 6632 2 36122 100.3600 261.4026 0007704 035.5896 324.5738 13.16296872124803 UO-11 1 14781U 84021B 12201.76522033 .00000495 00000-0 71573-4 0 09423 2 14781 097.9527 260.9978 0007894 291.4702 068.5667 14.80497817524756 AO-16 1 20439U 90005D 12201.85623339 .00000107 00000-0 55763-4 0 5148 2 20439 098.4326 144.3184 0011942 063.3201 296.9201 14.32067279174674 LO-19 1 20442U 90005G 12201.87428085 .00000181 00000-0 82701-4 0 04508 2 20442 098.3975 147.2271 0012839 055.5789 304.6603 14.32285122174869 AO-27 1 22825U 93061C 12202.84400058 .00000108 00000-0 59242-4 0 1542 2 22825 098.5756 145.1373 0008475 174.8024 185.3243 14.29472351981287 IO-26 1 22826U 93061D 12201.85867016 .00000090 00000-0 51834-4 0 9057 2 22826 098.5694 144.5289 0008700 172.0724 188.0594 14.29746850981272 GO-32 1 25397U 98043D 12202.86053934 -.00000044 00000-0 -13796-5 0 8287 2 25397 098.3648 179.9163 0001416 141.6691 218.4616 14.23283365728813 NO-44 1 26931U 01043C 12201.77778600 .00000062 00000-0 56107-4 0 00944 2 26931 067.0515 036.3442 0007584 258.3310 101.6956 14.29813160563901 SO-50 1 27607U 02058C 12201.43148710 .00000503 00000-0 96798-4 0 08160 2 27607 064.5553 196.8084 0081325 242.2791 117.0031 14.72436005514717 CO-55 1 27844U 03031E 12201.59237451 .00000210 00000-0 11663-3 0 04228 2 27844 098.7028 209.4992 0010299 124.8092 235.4049 14.21044622469498 CO-57 1 27848U 03031J 12202.58763149 .00000157 00000-0 92784-4 0 3717 2 27848 098.7124 209.8294 0010364 126.6996 233.5128 14.20793927469578 AO-51 1 28375U 04025K 12201.50786094 .00000159 00000-0 60490-4 0 03218 2 28375 098.1501 165.2836 0083485 303.9482 055.3812 14.40966739423427 CP3 1 31129U 07012N 12201.58413951 .00000951 00000-0 22510-3 0 2168 2 31129 097.8833 207.4524 0101554 023.1559 337.4162 14.53132399278688 CO-65 1 32785U 08021C 12201.69795178 .00000883 00000-0 11475-3 0 03673 2 32785 097.7987 261.9775 0013788 320.2254 039.7874 14.83063342228583 PRISM 1 33493U 09002B 12202.83958089 .00002468 00000-0 30209-3 0 8996 2 33493 098.1746 344.2138 0018812 183.8246 176.2820 14.84044342188744 SOHLA-1 1 33496U 09002E 12201.91366196 .00000348 00000-0 66255-4 0 07905 2 33496 098.1076 313.4374 0005747 303.1550 056.9102 14.69999371187055 SO-67 1 35870U 09049F 12202.87018946 .00003932 00000-0 16475-3 0 1574 2 35870 097.2302 237.4337 0003765 067.3828 054.4337 15.24079770157744 TISAT-1 1 36799U 10035E 12202.69412758 .00001703 00000-0 22069-3 0 1751 2 36799 098.0614 279.2738 0016333 066.0437 294.2461 14.82067613109459 STUDSAT 1 36801U 10035G 12201.89839087 .00004360 00000-0 52176-3 0 04357 2 36801 098.0682 279.3345 0013612 057.1823 303.0672 14.84606095109379 FO-69 1 37227U 0 12179.46825757 .00000166 00000-0 31335-4 0 02192 2 37227 071.9703 289.2712 0018108 298.3339 061.6016 14.77092260037611 FO-70 1 37380U 0 12179.47554455 .00000208 00000-0 37493-4 0 02230 2 37380 071.9743 289.8278 0018623 295.0880 064.8372 14.76843679037500 ALMASAT-1 1 38078U 12006B 12202.60864756 .00012243 00000-0 33701-3 0 4022 2 38078 069.4890 241.5036 0755309 206.9842 148.9950 14.10287831 22268 XATCOBEO 1 38082U 12006F 12202.50131067 .00028408 00000-0 67744-3 0 4123 2 38082 069.4877 239.0121 0728633 205.6779 150.6383 14.18727716 22315 NOAA-10 1 16969U 86073A 12201.96214895 .00000162 00000-0 83198-4 0 00101 2 16969 098.5809 230.4304 0012844 135.8313 224.3896 14.27564793344543 NOAA-11 1 19531U 88089A 12201.74317363 -.00000182 00000-0 -71890-4 0 09961 2 19531 098.7333 286.2174 0011935 128.9427 231.2809 14.14972578229114 NOAA-12 1 21263U 91032A 12201.96667966 .00000017 00000-0 25891-4 0 04992 2 21263 098.7274 223.4753 0014793 105.0643 255.2177 14.25507388101220 MET-3/5 1 21655U 91056A 12201.43533565 .00000309 00000-0 76971-3 0 00019 2 21655 082.5582 129.4107 0012335 238.9263 121.0649 13.17037280005899 MET-2/21 1 22782U 93055A 12201.84114151 .00000029 00000-0 12306-4 0 04772 2 22782 082.5463 006.5989 0023885 063.2002 297.1604 13.83685328953684 OKEAN-4 1 23317U 94066A 12202.88388509 .00000667 00000-0 77289-4 0 9476 2 23317 082.5387 359.6952 0019861 238.6996 121.2274 14.83854467959808 NOAA-14 1 23455U 94089A 12201.95294684 -.00000134 00000-0 -47598-4 0 09809 2 23455 098.8261 285.0400 0008733 223.2805 136.7677 14.13908722905421 NOAA-15 1 25338U 98030A 12201.63457484 .00000217 00000-0 11112-3 0 03395 2 25338 098.6909 188.2394 0011081 019.9400 340.2198 14.25096418737478 RESURS 1 25394U 98043A 12201.92768328 .00000042 00000-0 35759-4 0 1405 2 25394 098.3218 188.4443 0001946 115.3927 244.7455 14.24290885729064 FENGYUN1 1 25730U 99025A 12202.92977473 .00000878 00000-0 52495-3 0 6535 2 25730 098.8467 161.3274 0017842 270.1222 089.7899 14.09672721679363 OKEAN-0 1 25860U 99039A 12201.90753524 .00000398 00000-0 67741-4 0 07023 2 25860 097.9387 163.8868 0001595 096.3730 263.7660 14.74245218699398 NOAA-16 1 26536U 00055A 12201.68663361 .00000256 00000-0 16254-3 0 08260 2 26536 099.0911 244.3075 0010338 357.8181 002.2948 14.12760478609624 NOAA-17 1 27453U 02032A 12201.75568078 .00000244 00000-0 12293-3 0 07752 2 27453 098.3354 227.1455 0012647 063.9805 296.2666 14.24460445523395 NOAA-18 1 28654U 05018A 12201.81106137 .00000158 00000-0 11147-3 0 02569 2 28654 099.0467 160.1731 0015201 064.6683 295.6083 14.11674493369161 NOAA-19 1 33591U 09005A 12201.82620462 .00000260 00000-0 16821-3 0 04467 2 33591 098.8641 141.2118 0013294 291.4108 068.5673 14.11362075177618 HUBBLE 1 20580U 90037B 12201.67029279 .00001482 00000-0 96176-4 0 373 2 20580 028.4717 290.9586 0003310 047.7488 312.3240 15.02635383 19629 ISS 1 25544U 98067A 12202.86303361 .00007823 00000-0 12315-3 0 9688 2 25544 051.6441 314.0699 0000553 260.8060 193.0038 15.54606717783251 CO-58 1 28895U 05043F 12202.64954313 .00000330 00000-0 76756-4 0 2305 2 28895 097.9093 067.4444 0018680 049.2776 311.0013 14.60680934358543 FALCON 1 30776U 07006E 12202.89604595 .00002584 00000-0 16819-3 0 3945 2 30776 035.4308 070.9142 0003226 298.5216 061.5177 15.07781171295345 MAST 1 31126U 07012K 12201.97537560 .00000566 00000-0 13622-3 0 05171 2 31126 097.8745 211.1577 0094305 009.1920 351.0980 14.54203829279036 CAPE1 1 31130U 07012P 12202.58965702 .00000520 00000-0 12795-3 0 5212 2 31130 097.8791 208.0977 0102054 020.7265 339.8028 14.52995643278624 COMPASS 1 32787U 08021E 12201.63468934 .00001765 00000-0 21741-3 0 03606 2 32787 097.7986 262.2515 0014197 318.1079 041.8948 14.84129881228629 AAUSAT2 1 32788U 08021F 12202.74307427 .00001660 00000-0 20325-3 0 3510 2 32788 097.8009 263.7348 0013365 314.3631 045.6451 14.84464490228815 DO-64 1 32789U 08021G 12201.74591947 .00003690 00000-0 42733-3 0 03682 2 32789 097.8111 264.9062 0013538 313.5668 046.4374 14.86040519228715 CO-66 1 32791U 08021J 12201.63729600 .00001313 00000-0 16566-3 0 03508 2 32791 097.7992 261.9686 0014743 318.1545 041.8422 14.83523491228554 RS-30 1 32953U 08025A 12202.69241536 .00000010 00000-0 00000 0 0 9787 2 32953 082.5024 274.3053 0017730 231.8829 128.0659 12.43025705188726 TACSAT-3 1 35001U 09028A 12121.72616188 .15204951 73582-5 42606-3 0 00016 2 35001 040.4259 351.8840 0007146 275.2650 085.0693 16.45157000166990 PHARMSAT 1 35002U 09028B 12202.45849120 .00216816 25063-4 46790-3 0 9981 2 35002 040.4506 212.4054 0008134 137.6601 222.4866 15.97548690179628 METEOR-M 1 35865U 09049A 12202.78604452 -.00000032 00000-0 50929-5 0 6085 2 35865 098.6527 256.4783 0002083 337.0049 023.1033 14.21865748147370 RS-38 1 35869U 09049E 12202.73183747 .00000038 00000-0 36799-4 0 6165 2 35869 098.6479 256.4151 0004164 326.1923 033.8987 14.22079280147387 JUGNU 1 37839U 11058B 12201.18215463 .00000620 00000-0 19019-3 0 01905 2 37839 019.9616 164.3996 0018685 213.9934 145.9273 14.12067822039771 SRMSAT 1 37841U 11058D 12201.20948642 .00000264 00000-0 00000-0 0 01915 2 37841 019.9720 169.7497 0012278 183.0207 177.0151 14.10149976039722 RAX-2 1 37853U 11061D 12202.84965708 .00001301 00000-0 11287-3 0 2359 2 37853 101.7119 258.3665 0246310 254.8248 102.5566 14.80220244 39376 AUBIESAT 1 37854U 11061E 12201.84944470 .00002778 00000-0 22471-3 0 02448 2 37854 101.7104 257.2007 0246774 256.6686 100.6849 14.80618884039227 HRBE 1 37855U 11061F 12201.86639046 .00002438 00000-0 19906-3 0 02397 2 37855 101.7137 257.1720 0247351 257.0429 100.3016 14.80464264039221 RS-39 1 38051U 11062C 12202.89467069 .00006939 00000-0 28856-3 0 5325 2 38051 051.6351 359.1587 0014876 155.4714 000.3815 15.24794552 27113 E-STAR 1 38079U 12006C 12202.51230909 .00023081 00000-0 55571-3 0 3659 2 38079 069.4863 239.4126 0736428 205.9120 150.3066 14.16908180 22307 GOLIAT 1 38085U 12006J 12202.52724245 .00023495 00000-0 56992-3 0 3363 2 38085 069.4929 239.7500 0740400 206.2396 149.9420 14.15906229 22297 HORYU-2 1 38340U 12025D 12202.38380381 .00000585 00000-0 10591-3 0 559 2 38340 098.1761 142.1895 0011936 222.8757 137.1475 14.70045877 9353 /EX